Location: Peterborough
(44.3091°N, 78.3197°W)
Time: 07:12:03
(UTC-04:00)

Vanguard 3 - Pass Details

Date: 25 March 2023
Orbit: 507 x 3246 km, 33.4° (Epoch: 04 June)

Event Time Altitude Azimuth Distance (km) Brightness Sun altitude
Rises 02:18:11 0° 204° (SSW) 6,370 - -42.1°
Reaches altitude 10° 02:22:56 10° 195° (SSW) 5,668 - -41.8°
Exits shadow 02:36:53 30° 145° (SE) 4,664 10.6 -40.8°
Maximum altitude 02:37:28 30° 142° (SE) 4,667 10.7 -40.8°
Drops below altitude 10° 02:52:30 10° 91° (E) 5,931 11.8 -39.5°
Sets 02:57:33 0° 82° (E) 6,704 12.3 -39.0°
